THORAD AGENA D DEB, 42508

Orbit data source: Space-Track

THORAD AGENA D DEB, 42508 is space debris in SSO originally from a launch on Wed, 08 Apr 1970 UTC launched from the Air Force Western Test Range (AFWTR). Debris objects in space refer to the collection of defunct objects orbiting the Earth. Examples of debris include non-operational satellites, rocket bodies, and fragments generated from explosions, collisions, or faulty payload assembly.

Loading next visibility...
Identifier
42508, 1970-025RN
Orbit
SSO
Country
Flag of USUS
Related business
Manufacturer
Unknown
Mission
Spacecraft
Bus & Motor
Unknown
Mass
Unknown
Launch date (UTC)
1970-04-08 (56 years ago)
Launch vehicle
Unknown
Launch site
Air Force Western Test Range (AFWTR)
Object type
Payload
Rocket body
Debris
Shape & HBR
Unknown shape, 0.1 m
Radar Cross Section
Small (<0.1 m²)

Expand to show TLE details & history
Last TLE update: 2 days ago

TLE from 2 days ago
0 THORAD AGENA D DEB
1 42508U 70025RN  25307.85809558  .00000479  00000-0  38693-3 0  9990
2 42508  99.8363 161.7143 0120402 217.6928 141.5749 13.92547224144870
Epoch: 2025-11-03T20:35Z
TLE epoch observation values (Epoch: 2025-11-03T20:35:39.458Z)
Latitude
0.00004°
Longitude
169.44644°
Altitude
991.81 km
Speed
7.321 km/s
True Right ascension
10h 46m 51s
True Declination
0° 00' 00"
Sunlit
Object was in daylight at epoch
Visualization orbit readout
Latitude
Unknown
Longitude
Unknown
Altitude
Unknown
Speed
Unknown
Apparent Right ascension
Unknown
Apparent Declination
Unknown
Sunlit
N/A
Visualization observer readout
Local Sidereal Time
15:33:48
Azimuth
Unknown
Elevation
Unknown
Doppler factor
Unknown
Orbital elements
Apogee altitude
1,004.804 km
Perigee altitude
829.135 km
Semi-major axis
7,295.106 km
Eccentricity
0.01204
Inclination
99.8363°
RAAN
161.7143°
Arg. of periapsis
217.6928°
True anomaly
142.42235°
Mean anomaly
141.5749°
Eccentric anomaly
141.99962°
Mean motion
3.48334 °/min
Orbital period
103.35 mins
BSTAR
0.00038693
Loading maneuver chart data...
Computing Atmospheric mass density...

Documentation

Showing up to 5 results
|